TimeEST,TemperatureF,Dew PointF,Humidity,Sea Level PressureIn,VisibilityMPH,Wind Direction,Wind SpeedMPH,Gust SpeedMPH,PrecipitationIn,Events,Conditions,WindDirDegrees,DateUTC
12:53 AM,73.0,68.0,84,29.94,10.0,NNW,3.5,-,N/A,,Clear,330,2013-02-25 05:53:00
1:53 AM,72.0,66.9,84,29.92,10.0,Calm,Calm,-,N/A,,Clear,0,2013-02-25 06:53:00
2:53 AM,71.1,66.9,87,29.90,10.0,SE,3.5,-,N/A,,Clear,130,2013-02-25 07:53:00
3:53 AM,70.0,66.9,90,29.91,10.0,Calm,Calm,-,N/A,,Scattered Clouds,0,2013-02-25 08:53:00
4:53 AM,70.0,66.9,90,29.89,10.0,Calm,Calm,-,N/A,,Clear,0,2013-02-25 09:53:00
5:53 AM,69.1,66.9,93,29.90,10.0,Calm,Calm,-,N/A,,Mostly Cloudy,0,2013-02-25 10:53:00
6:53 AM,71.1,68.0,90,29.90,10.0,Calm,Calm,-,N/A,,Partly Cloudy,0,2013-02-25 11:53:00
7:53 AM,73.9,71.1,91,29.91,10.0,SE,3.5,-,N/A,,Partly Cloudy,130,2013-02-25 12:53:00
8:53 AM,77.0,72.0,84,29.94,10.0,South,10.4,-,N/A,,Mostly Cloudy,170,2013-02-25 13:53:00
9:43 AM,80.6,69.8,70,29.94,10.0,South,8.1,-,N/A,,Mostly Cloudy,190,2013-02-25 14:43:00
9:53 AM,81.0,70.0,69,29.94,10.0,SSE,10.4,-,N/A,,Mostly Cloudy,150,2013-02-25 14:53:00
10:21 AM,80.6,68.0,65,29.93,10.0,SSE,15.0,-,N/A,,Partly Cloudy,150,2013-02-25 15:21:00
10:53 AM,82.0,69.1,65,29.93,10.0,SSE,11.5,-,N/A,,Scattered Clouds,160,2013-02-25 15:53:00
11:53 AM,82.9,68.0,60,29.91,10.0,South,11.5,-,N/A,,Mostly Cloudy,170,2013-02-25 16:53:00
12:53 PM,84.0,69.1,61,29.88,10.0,SE,16.1,21.9,N/A,,Mostly Cloudy,140,2013-02-25 17:53:00
1:53 PM,84.0,68.0,58,29.87,10.0,South,13.8,-,N/A,,Mostly Cloudy,170,2013-02-25 18:53:00
2:53 PM,84.9,66.9,55,29.85,10.0,SSE,18.4,24.2,N/A,,Partly Cloudy,160,2013-02-25 19:53:00
3:53 PM,84.0,64.9,53,29.85,10.0,SSE,16.1,21.9,N/A,,Clear,150,2013-02-25 20:53:00
4:53 PM,82.0,64.9,56,29.84,10.0,South,13.8,-,N/A,,Clear,170,2013-02-25 21:53:00
5:53 PM,80.1,64.9,60,29.86,10.0,South,10.4,-,N/A,,Clear,180,2013-02-25 22:53:00
6:53 PM,77.0,68.0,74,29.86,10.0,SSE,6.9,-,N/A,,Clear,160,2013-02-25 23:53:00
7:53 PM,75.9,69.1,79,29.87,10.0,SE,4.6,-,N/A,,Clear,140,2013-02-26 00:53:00
8:53 PM,75.0,69.1,82,29.88,10.0,SSE,5.8,-,N/A,,Clear,150,2013-02-26 01:53:00
9:53 PM,75.0,71.1,87,29.88,10.0,SE,8.1,-,N/A,,Scattered Clouds,140,2013-02-26 02:53:00
10:53 PM,75.0,71.1,87,29.88,10.0,SSE,8.1,-,N/A,,Clear,150,2013-02-26 03:53:00
11:53 PM,75.9,71.1,85,29.88,10.0,SSE,8.1,-,N/A,,Mostly Cloudy,150,2013-02-26 04:53:00